Regional Weather Roundup
Issued by NWS

Current Version | Previous Version | Text Only | Print | Product List | Glossary On
Versions: 1 2 3 4 5 6 7 8 9 10 11 12 13 14 15 16 17 18 19 20 21 22 23 24 25 26 27 28 29 30 31 32 33 34 35 36 37 38 39 40 41 42 43 44 45 46 47 48 49 50
000
ASUS43 KTOP 190108
RWRKS

WEATHER ROUNDUP FOR KANSAS
NATIONAL WEATHER SERVICE GOODLAND KS
700 PM CST WED JAN 18 2017

NOTE:  "FAIR" INDICATES FEW OR NO CLOUDS BELOW 12,000 FEET WITH NO
SIGNIFICANT WEATHER AND/OR OBSTRUCTIONS TO VISIBILITY.

KSZ001>006-013>018-027>032-041>047-190200-
NORTHWEST KANSAS

CITY           SKY/WX    TMP DP  RH WIND       PRES   REMARKS
GOODLAND       CLOUDY    39  34  82 S12       29.78F WCI  32
HAYS           CLEAR     42  39  89 SE10      29.86S
HILL CITY      CLEAR     40  39  97 CALM      29.83S
RUSSELL        CLEAR     45  39  79 S14       29.85F
$$

KSZ061>065-074>080-084>089-190200-
SOUTHWEST KANSAS

CITY           SKY/WX    TMP DP  RH WIND       PRES   REMARKS
DODGE CITY     CLOUDY    47  41  80 SE12      29.84F
ELKHART          N/A     45  33  63 S6          N/A
GARDEN CITY    PTCLDY    40  36  86 SE6       29.81F
GREAT BEND     CLEAR     44  40  85 SE12      29.88S
LIBERAL        CLEAR     46  36  66 S9        29.82S
PRATT          CLEAR     44  39  84 S10       29.89S
$$

KSZ066>073-081>083-090>101-190200-
SOUTHEAST KANSAS

CITY           SKY/WX    TMP DP  RH WIND       PRES   REMARKS
CHANUTE        CLOUDY    46  40  79 SE5       29.99F
COFFEYVILLE    CLOUDY    49  42  77 SE6       29.99F
HUTCHINSON     PTCLDY    44  39  82 SE8       29.92S
MEDICINE LODGE   N/A     46  40  79 SE8       29.91R
NEWTON         MOCLDY    44  38  79 S8        29.93S
PARSONS        CLOUDY    48  42  80 SE3       29.99F
WICHITA INTL   PTCLDY    45  38  76 S3        29.93S
WICHITA JABRA  CLEAR     44  37  76 S7        29.93S
WICHITA MCCONL CLEAR     45  37  72 S8        29.93S
WINFIELD       CLOUDY    49  37  63 SE5       29.96S
$$

KSZ007>012-019>026-033>040-048>060-102>105-190200-
NORTHEAST KANSAS

CITY           SKY/WX    TMP DP  RH WIND       PRES   REMARKS
CONCORDIA      CLEAR     43  36  76 S9        29.89R
EMPORIA        MOCLDY    43  35  73 SE9       29.95F
LAWRENCE       CLEAR     37  35  92 E8        29.99F
MANHATTAN      CLEAR     42  31  64 S6        29.93R
MARYSVILLE     CLEAR     45  32  61 SE5       29.92R
OLATHE IND     CLEAR     41  37  86 SE8       30.00R
OLATHE EXE     CLEAR     40  39  97 CALM      30.00R
SALINA         CLEAR     46  37  71 S8        29.91S
TOPEKA BILLARD PTCLDY    42  35  76 SE6       29.97S
TOPEKA FORBES  PTCLDY    42  35  76 SE7       29.97S
$$




USA.gov is the U.S. government's official web portal to all federal, state and local government web resources and services.